Aeroporto :
LOGIN :

Iscrizione | Disclaimer

   EN    FR    IT 

 










Sommario :    VFR   VFR Marginale   IFR   IFR Intensivo   IFR Molto Intensivo
Visibilità : 
Base nubi : 
>= 8 km
>= 3000ft
5 / 8 km
1000 / 3000 ft
1500m / 5 km
500 / 1000 ft
800 / 1500m
200 / 500 ft
< 800m
< 200 ft
Simboli :   Temporali  Nebbia  Neve Forte  Precipitazioni Forti  Vento > 20 kt
SIGMETs :   Varie  Temporali  Ghiacco  Turbolenza  Onda orograficha  Ceneri Vulcaniche







- Altitudine del aeroporto : 15 ft
- Codice IATA : GIB


LXGB - Gibraltar

ULTIMO METAR :
  • 220650Z 09006KT 8000 HZ FEW010 SCT012 BKN022 19/18 Q1019 TEMPO FEW012 BKN022

METARs OBSOLETI :
  • 220550Z 05006KT 9999 FEW008 SCT012 BKN020 19/18 Q1019
  • 220450Z 05007KT 9999 FEW007 SCT010 BKN022 19/18 Q1019

TAF TAF LXGB
Valido dal 22 a 06 ore il 22 a 15 ore UTC


220429Z 2206/2215 05008KT 7000 BR SCT007 BKN020
BECMG 2206/2209 9999 NSW FEW012
TEMPO 2209/2213 SCT012
Nessun NOTAM noto per questo aeroporto.



MetMap, La meteo Aeronautica in un colpo d'occhio ! - Copyright ORBIFLY Dicembre 2007 - Disclaimer

ORBIFLY MET'MAP TEAM :

Programmazione e sviluppo : Alexandra Zaïnal
Concezione e sviluppo : Baudouin d'Aumeries
Co-Programmazione e sviluppo : Marc-Olivier Méhu
Supporto tecnico e logistico : Manuel Goepfert
Aiuto per la traduzione : Arnaldo La Scala

Contatto : metmap@orbifly.com




FONTI E CREDITI :

   NOAA